Regional Weather Roundup
Issued by NWS Burlington, VT

Current Version | Previous Version | Text Only | Print | Product List | Glossary On
Versions: 1 2 3 4 5 6 7 8 9 10 11 12 13 14 15 16 17 18 19 20 21 22 23 24 25 26 27 28 29 30 31 32 33 34 35 36 37 38 39 40 41 42 43 44 45 46 47 48 49 50
000
ASUS41 KBTV 060710
RWRBTV
VERMONT REGIONAL WEATHER ROUNDUP
NATIONAL WEATHER SERVICE BURLINGTON VT
300 AM EDT MON JUL 06 2015

NOTE: "FAIR" INDICATES FEW OR NO CLOUDS BELOW 12,000 FEET WITH NO
SIGNIFICANT WEATHER AND/OR OBSTRUCTIONS TO VISIBILITY.

* THESE REPORTS ARE NOT UNDER NWS QUALITY CONTROL AND/OR DO NOT
  REPORT WEATHER SUCH AS PRECIPITATION AND FOG.

VTZ001>019-060800-
_____VERMONT_____


CITY           SKY/WX    TMP DP  RH WIND       PRES   REMARKS
BURLINGTON     CLEAR     61  57  87 CALM      30.13S
MONTPELIER     FOG       56  55  97 CALM      30.21R VSB 1/2
MORRISVILLE    FOG       56  54  93 CALM      30.18R VSB 1
ST. JOHNSBURY*   N/A     57  54  89 MISG      30.15R
LYNDONVILLE*   FOG       54  53  97 CALM      30.19R VSB 3/4
MIDDLEBURY*    FAIR      61  61 100 CALM      30.14S
RUTLAND*       MOCLDY    61  54  77 SE8       30.17R
SPRINGFIELD    PTCLDY    58  57  97 CALM      30.17R
HIGHGATE*      FAIR      59  58  97 CALM      30.13R
NEWPORT*       FAIR      55  55  99 CALM      30.16S
BENNINGTON     CLEAR     54  53  97 CALM      30.16S FOG
SUTTON*          N/A     55 N/A N/A MISG        N/A

_____LAKE CHAMPLAIN_____


CITY           SKY/WX    TMP DP  RH WIND       PRES   REMARKS

$$

NYZ007-026>031-035-052-083-060800-
_____NORTHERN NEW YORK_____


CITY           SKY/WX    TMP DP  RH WIND       PRES   REMARKS
PLATTSBURGH    CLEAR     57  56  96 S3        30.12S
SARANAC LAKE   FOG       47  46  97 CALM      30.18R VSB 1/4
MASSENA        CLEAR     59  56  89 CALM      30.12S
OGDENSBURG*    CLEAR     57  57 100 CALM      30.12S
POTSDAM*       CLEAR     57  57 100 CALM      30.13S FOG
WATERTOWN      CLEAR     54  52  93 CALM      30.13R FOG
FT DRUM        CLEAR     60  56  87 SE9       30.13S
ALBANY         MOCLDY    60  56  86 CALM      30.15R
GLENS FALLS    CLEAR     60  57  89 CALM      30.15R

$$
NHZ002-005-011-060800-
_____NEW HAMPSHIRE_____


CITY           SKY/WX    TMP DP  RH WIND       PRES   REMARKS
LEBANON        PTCLDY    62  59  90 S5        30.15S
KEENE          CLOUDY    57  54  88 CALM      30.16S VSB<1/4
MT WASHINGTON  PTCLDY    46  45  93 NW23        N/A
PLYMOUTH       MOCLDY    58  58 100 CALM      30.16R
WHITEFIELD     CLEAR     52  49  89 CALM      30.17R

$$

_____REGIONAL QUEBEC LOCATIONS_____


CITY           SKY/WX    TMP DP  RH WIND       PRES   REMARKS
MONTREAL       PTCLDY    66  63  88 SW7       30.10S
QUEBEC CITY    PTCLDY    59  57  94 VRB2      30.08F
SHERBROOKE     CLEAR     55  55 100 E2        30.14S FOG

_____REGIONAL ONTARIO LOCATIONS_____


CITY           SKY/WX    TMP DP  RH WIND       PRES   REMARKS
OTTAWA         CLEAR     61  59  94 S7        30.10S

______KEY______
VSB  - VISIBILITY IN MILES
WCI  - WIND CHILL INDEX
HX   - HEAT INDEX
$$
NNNN


USA.gov is the U.S. government's official web portal to all federal, state and local government web resources and services.